DELTA 1 DEB, 40754

Orbit data source: Space-Track

DELTA 1 DEB, 40754 is space debris in SSO originally from a launch on Thu, 29 Jul 1976 UTC launched from the Air Force Western Test Range (AFWTR). Debris objects in space refer to the collection of defunct objects orbiting the Earth. Examples of debris include non-operational satellites, rocket bodies, and fragments generated from explosions, collisions, or faulty payload assembly.

Loading next visibility...
Identifier
40754, 1976-077FX
Orbit
SSO
Country
Flag of USUS
Related business
Manufacturer
Unknown
Mission
Spacecraft
Bus & Motor
Unknown
Mass
Unknown
Launch date (UTC)
1976-07-29 (50 years ago)
Launch vehicle
Unknown
Launch site
Air Force Western Test Range (AFWTR)
Object type
Payload
Rocket body
Debris
Shape & HBR
Unknown shape, 0.1 m
Radar Cross Section
Medium (>0.1 m² and <1 m²)

Expand to show TLE details & history
Last TLE update: 4 days ago

TLE from 4 days ago
0 DELTA 1 DEB
1 40754U 76077FX  26252.77358999 -.00000036  00000-0  85549-4 0  9996
2 40754 102.5450 219.6823 0093691 325.5217  33.9783 12.25158049 13849
Epoch: 2026-09-09T18:33Z
TLE epoch observation values (Epoch: 2026-09-09T18:33:58.175Z)
Latitude
0.00007°
Longitude
-47.63095°
Altitude
1,511.12 km
Speed
7.137 km/s
True Right ascension
14h 38m 43s
True Declination
0° 00' 00"
Sunlit
Object was in daylight at epoch
Visualization orbit readout
Latitude
Unknown
Longitude
Unknown
Altitude
Unknown
Speed
Unknown
Apparent Right ascension
Unknown
Apparent Declination
Unknown
Sunlit
N/A
Visualization observer readout
Local Sidereal Time
04:03:39
Azimuth
Unknown
Elevation
Unknown
Doppler factor
Unknown
Orbital elements
Apogee altitude
1,642.227 km
Perigee altitude
1,493.335 km
Semi-major axis
7,945.918 km
Eccentricity
0.00937
Inclination
102.545°
RAAN
219.6823°
Arg. of periapsis
325.5217°
True anomaly
34.58419°
Mean anomaly
33.9783°
Eccentric anomaly
34.28066°
Mean motion
3.06427 °/min
Orbital period
117.48 mins
BSTAR
0.000085549
Loading maneuver chart data...
Computing Atmospheric mass density...
Loading historical data...
Loading historical data...
Loading historical data...
Loading historical data...
Loading historical data...
Loading historical data...
Loading historical data...

Documentation

Showing up to 5 results
|